This is the latest recevied weather packets stored in our database for station/object DH0GMA. If no packets are shown the sender has not sent any weather packets the latest 1 day(s).
| Time | Temp. | Humidity | Pressure | Rain* | Wind** | Luminosity | Snow |
|---|---|---|---|---|---|---|---|
| 1777981587 | 17.78° C | 64% | 1007.3 hPa | 0 mm | 0.45 m/s, 202° | - | - |
| 1777980987 | 18.33° C | 65% | 1007.1 hPa | 0 mm | 1.34 m/s, 156° | - | - |
| 1777980387 | 17.78° C | 67% | 1007.2 hPa | 0 mm | 0.45 m/s, 183° | - | - |
| 1777979788 | 17.78° C | 68% | 1006.9 hPa | 0 mm | 0.45 m/s, 292° | - | - |
| 1777979187 | 17.78° C | 69% | 1006.8 hPa | 0 mm | 0.45 m/s, 284° | - | - |
| 1777978587 | 17.78° C | 67% | 1006.9 hPa | 0 mm | 0.45 m/s, 255° | - | - |
| 1777977987 | 17.78° C | 70% | 1006.8 hPa | 0 mm | 0.45 m/s, 206° | - | - |
| 1777977387 | 17.78° C | 71% | 1007 hPa | 0 mm | 0.45 m/s, 188° | - | - |
| 1777976787 | 17.22° C | 71% | 1007 hPa | 0 mm | 0 m/s | - | - |
| 1777976187 | 17.78° C | 71% | 1007 hPa | 0 mm | 0.45 m/s, 260° | - | - |
| 1777975587 | 17.78° C | 72% | 1007.3 hPa | 0 mm | 0.45 m/s, 268° | - | - |
| 1777974987 | 17.78° C | 70% | 1007.2 hPa | 0 mm | 0.45 m/s, 299° | - | - |
| 1777974387 | 17.22° C | 72% | 1007.3 hPa | 0 mm | 0 m/s | - | - |
| 1777973787 | 17.22° C | 72% | 1007.4 hPa | 0 mm | 0 m/s | - | - |
| 1777973186 | 17.22° C | 72% | 1007.5 hPa | 0 mm | 0.45 m/s, 258° | - | - |
| 1777972586 | 17.22° C | 72% | 1007.5 hPa | 0 mm | 0 m/s | - | - |
| 1777971986 | 17.22° C | 73% | 1007.5 hPa | 0 mm | 0 m/s | - | - |
| 1777971386 | 16.67° C | 72% | 1007.5 hPa | 0 mm | 0.45 m/s, 116° | - | - |
| 1777970786 | 16.67° C | 72% | 1007.5 hPa | 0 mm | 0.89 m/s, 106° | - | - |
| 1777970188 | 16.67° C | 73% | 1007.7 hPa | 0 mm | 0 m/s | - | - |
| 1777969588 | 16.67° C | 73% | 1007.8 hPa | 0 mm | 0.45 m/s, 95° | - | - |
| 1777968987 | 16.67° C | 73% | 1007.8 hPa | 0 mm | 0.45 m/s, 274° | - | - |
| 1777968387 | 16.67° C | 74% | 1007.9 hPa | 0 mm | 0.45 m/s, 232° | - | - |
| 1777967787 | 16.67° C | 75% | 1007.9 hPa | 0 mm | 0 m/s | - | - |
| 1777967187 | 15° C | 78% | 1008 hPa | 0 mm | 0.45 m/s, 241° | - | - |
* Rain latest hour (hover to see other rain measurements)
** Current wind speed in m/s (hover to see current wind gust speed)